| time (UTC) | temp F | wind direction | speed knots | gust knots | rain 1hr in | rain 24hr in | rain mn in | humidity % | barometer mb |
| 20260505223038 | 64 | 281 | 1.7 | 8.7 | 0.00 | 0.00 | 0.00 | 62 | 1015.5 |
| 20260505221524 | 65 | 304 | 0.0 | 7.0 | 0.00 | 0.00 | 0.00 | 61 | 1015.3 |
| 20260505220041 | 65 | 299 | 0.0 | 6.1 | 0.00 | 0.00 | 0.00 | 60 | 1015.4 |
| 20260505214524 | 66 | 266 | 0.0 | 4.3 | 0.00 | 0.00 | 0.00 | 59 | 1015.5 |
| 20260505213042 | 66 | 236 | 0.0 | 2.6 | 0.00 | 0.00 | 0.00 | 60 | 1015.6 |
| 20260505211521 | 64 | 237 | 2.6 | 6.1 | 0.00 | 0.00 | 0.00 | 62 | 1015.6 |
| 20260505210036 | 65 | 245 | 0.0 | 7.0 | 0.00 | 0.00 | 0.00 | 62 | 1015.6 |
| 20260505204518 | 64 | 18 | 0.0 | 5.2 | 0.00 | 0.00 | 0.00 | 64 | 1015.6 |
| 20260505203056 | 64 | 267 | 0.9 | 7.8 | 0.00 | 0.00 | 0.00 | 65 | 1015.8 |
| 20260505201535 | 63 | 282 | 0.9 | 8.7 | 0.00 | 0.00 | 0.00 | 66 | 1016.1 |
| 20260505200105 | 63 | 256 | 0.0 | 7.0 | 0.00 | 0.00 | 0.00 | 66 | 1015.9 |
| 20260505194536 | 62 | 277 | 0.0 | 6.1 | 0.00 | 0.00 | 0.00 | 68 | 1015.7 |
| 20260505193019 | 62 | 250 | 0.0 | 5.2 | 0.00 | 0.00 | 0.00 | 66 | 1015.6 |
| 20260505191554 | 62 | 344 | 0.0 | 7.0 | 0.00 | 0.00 | 0.00 | 68 | 1015.6 |
| 20260505190025 | 61 | 267 | 0.0 | 5.2 | 0.00 | 0.00 | 0.00 | 70 | 1015.6 |
| 20260505184548 | 60 | 284 | 0.0 | 1.7 | 0.00 | 0.00 | 0.00 | 70 | 1015.6 |
| 20260505183027 | 60 | 289 | 0.9 | 6.1 | 0.00 | 0.00 | 0.00 | 71 | 1015.6 |
| 20260505181549 | 60 | 250 | 1.7 | 5.2 | 0.00 | 0.00 | 0.00 | 73 | 1015.5 |
| 20260505180104 | 60 | 265 | 0.0 | 0.0 | 0.00 | 0.00 | 0.00 | 75 | 1015.5 |
| 20260505174557 | 59 | 269 | 0.0 | 0.0 | 0.00 | 0.00 | 0.00 | 74 | 1015.5 |
| 20260505173035 | 59 | 256 | 0.0 | 0.0 | 0.00 | 0.00 | 0.00 | 74 | 1015.5 |
| 20260505171503 | 59 | 149 | 0.0 | 0.0 | 0.00 | 0.00 | 0.00 | 73 | 1015.3 |
| 20260505170033 | 58 | 148 | 0.0 | 0.0 | 0.00 | 0.00 | 0.00 | 71 | 1015.3 |
| 20260505164515 | 58 | 150 | 0.0 | 0.0 | 0.00 | 0.00 | 0.00 | 71 | 1015.3 |
| 20260505163044 | 59 | 150 | 0.0 | 0.0 | 0.00 | 0.00 | 0.00 | 70 | 1015.1 |
| 20260505161523 | 58 | 153 | 0.0 | 0.0 | 0.00 | 0.00 | 0.00 | 73 | 1015.3 |
| 20260505153045 | 56 | 148 | 0.0 | 0.0 | 0.00 | 0.00 | 0.00 | 78 | 1015.4 |
| 20260505151510 | 56 | 148 | 0.0 | 0.0 | 0.00 | 0.00 | 0.00 | 80 | 1015.4 |
| 20260505124531 | 55 | 168 | 0.0 | 0.0 | 0.00 | 0.00 | 0.00 | 82 | 1014.5 |
| 20260505123055 | 55 | 168 | 0.0 | 0.0 | 0.00 | 0.00 | 0.00 | 81 | 1014.5 |
| 20260505121538 | 55 | 168 | 0.0 | 0.0 | 0.00 | 0.00 | 0.00 | 80 | 1014.5 |
| 20260505120054 | 55 | 168 | 0.0 | 0.0 | 0.00 | 0.00 | 0.00 | 80 | 1014.5 |
| 20260505114543 | 55 | 168 | 0.0 | 0.0 | 0.00 | 0.00 | 0.00 | 81 | 1014.5 |
| 20260505113014 | 55 | 168 | 0.0 | 0.0 | 0.00 | 0.00 | 0.00 | 81 | 1014.4 |
| 20260505111552 | 55 | 168 | 0.0 | 0.0 | 0.00 | 0.00 | 0.00 | 81 | 1014.4 |
| 20260505101503 | 55 | 168 | 0.0 | 0.0 | 0.00 | 0.00 | 0.00 | 84 | 1014.0 |
| 20260505094537 | 55 | 168 | 0.0 | 0.0 | 0.00 | 0.00 | 0.00 | 84 | 1014.0 |
| 20260505093058 | 55 | 168 | 0.0 | 0.0 | 0.00 | 0.00 | 0.00 | 84 | 1014.0 |
| 20260505091533 | 55 | 168 | 0.0 | 0.0 | 0.00 | 0.00 | 0.00 | 84 | 1014.0 |
| 20260505090047 | 55 | 168 | 0.0 | 0.0 | 0.00 | 0.00 | 0.00 | 85 | 1014.0 |
| 20260505084524 | 55 | 168 | 0.0 | 0.0 | 0.00 | 0.00 | 0.00 | 86 | 1014.0 |
| 20260505083054 | 55 | 168 | 0.0 | 0.0 | 0.00 | 0.00 | 0.00 | 86 | 1014.1 |
| 20260505081529 | 55 | 168 | 0.0 | 0.0 | 0.00 | 0.00 | 0.00 | 86 | 1014.2 |
| 20260505080044 | 55 | 171 | 0.0 | 0.0 | 0.00 | 0.00 | 0.00 | 86 | 1014.3 |
| 20260505074502 | 55 | 171 | 0.0 | 0.0 | 0.00 | 0.00 | 0.00 | 86 | 1014.4 |
| 20260505073052 | 55 | 215 | 0.0 | 0.0 | 0.00 | 0.00 | 0.00 | 86 | 1014.4 |
| 20260505071534 | 55 | 215 | 0.0 | 0.0 | 0.00 | 0.00 | 0.00 | 86 | 1014.5 |
| 20260505064538 | 55 | 215 | 0.0 | 0.0 | 0.00 | 0.00 | 0.00 | 86 | 1014.4 |
| 20260505063013 | 55 | 215 | 0.0 | 0.0 | 0.00 | 0.00 | 0.00 | 86 | 1014.4 |
| 20260505061549 | 55 | 215 | 0.0 | 0.0 | 0.00 | 0.00 | 0.00 | 86 | 1014.5 |
| 20260505060033 | 55 | 218 | 0.0 | 0.0 | 0.00 | 0.00 | 0.00 | 86 | 1014.5 |
| 20260505054551 | 55 | 218 | 0.0 | 0.0 | 0.00 | 0.00 | 0.00 | 86 | 1014.4 |
| 20260505053025 | 55 | 218 | 0.0 | 0.0 | 0.00 | 0.00 | 0.00 | 86 | 1014.4 |
| 20260505051558 | 55 | 227 | 0.0 | 0.0 | 0.00 | 0.00 | 0.00 | 86 | 1014.4 |
| 20260505041503 | 55 | 268 | 0.0 | 2.6 | 0.00 | 0.00 | 0.00 | 85 | 1014.0 |
| 20260505040029 | 55 | 159 | 0.0 | 0.0 | 0.00 | 0.00 | 0.00 | 85 | 1013.9 |
| 20260505034506 | 55 | 159 | 0.0 | 0.0 | 0.00 | 0.00 | 0.00 | 84 | 1013.7 |
| 20260505033045 | 55 | 160 | 0.0 | 0.0 | 0.00 | 0.00 | 0.00 | 84 | 1013.5 |
| 20260505031524 | 56 | 160 | 0.0 | 0.0 | 0.00 | 0.00 | 0.00 | 83 | 1013.4 |
| 20260505030046 | 56 | 158 | 0.0 | 0.0 | 0.00 | 0.00 | 0.00 | 82 | 1013.3 |
| 20260505024518 | 56 | 157 | 0.0 | 0.0 | 0.00 | 0.00 | 0.00 | 83 | 1013.3 |
| 20260505023051 | 56 | 212 | 0.0 | 0.9 | 0.00 | 0.00 | 0.00 | 82 | 1013.2 |
| 20260505021530 | 56 | 227 | 0.0 | 0.0 | 0.00 | 0.00 | 0.00 | 82 | 1013.2 |
| 20260505020052 | 56 | 262 | 0.0 | 0.0 | 0.00 | 0.00 | 0.00 | 82 | 1013.3 |
| 20260505014526 | 57 | 176 | 0.0 | 5.2 | 0.00 | 0.00 | 0.00 | 81 | 1013.3 |
| 20260505013009 | 57 | 252 | 0.9 | 7.8 | 0.00 | 0.00 | 0.00 | 81 | 1013.3 |
| 20260505011551 | 58 | 263 | 1.7 | 7.0 | 0.00 | 0.00 | 0.00 | 79 | 1013.3 |
| 20260505010013 | 59 | 273 | 0.0 | 7.0 | 0.00 | 0.00 | 0.00 | 78 | 1013.3 |
| 20260505004549 | 59 | 175 | 0.0 | 3.5 | 0.00 | 0.00 | 0.00 | 78 | 1013.4 |
| 20260505003023 | 59 | 259 | 0.0 | 5.2 | 0.00 | 0.00 | 0.00 | 77 | 1013.4 |
| 20260505001556 | 59 | 275 | 0.0 | 5.2 | 0.00 | 0.00 | 0.00 | 77 | 1013.5 |
| 20260505001502 | 59 | 275 | 0.0 | 5.2 | 0.00 | 0.00 | 0.00 | 77 | 1013.5 |
| 20260505000025 | 59 | 265 | 0.0 | 4.3 | 0.00 | 0.00 | 0.00 | 76 | 1013.6 |
| 20260504234555 | 59 | 267 | 0.9 | 7.8 | 0.00 | 0.00 | 0.00 | 76 | 1013.7 |
| 20260504233041 | 60 | 257 | 0.0 | 6.1 | 0.00 | 0.00 | 0.00 | 76 | 1013.9 |
| 20260504231520 | 59 | 286 | 2.6 | 7.8 | 0.00 | 0.00 | 0.00 | 75 | 1014.0 |
| 20260504230037 | 59 | 264 | 1.7 | 10.4 | 0.00 | 0.00 | 0.00 | 75 | 1014.0 |
| 20260504224507 | 59 | 269 | 0.9 | 7.0 | 0.00 | 0.00 | 0.00 | 77 | 1014.1 |